Flag for Switzerland Weather past 2 weeks in Schaffhausen, Schaffhausen, Switzerland

Now
47 °F

Cool.


Feels Like: 42 °F
Forecast: 45 / 50 °F
Wind: 12 mph from Southwest

Location: Zurich-Kloten

Current Time: Dec 18, 2014 at 11:47:55 AM

Latest Report: Dec 18, 2014 at 11:00 AM


Visibility: N/A

Pressure: 30.14 "Hg

Humidity: 84%

Dew point: 42 °F

Location of SchaffhausenLocation

Historic Weather in Schaffhausen — Graph

°F

Schaffhausen temperature yesterday

Maximum temperature yesterday: 43 °F (at 1:00 PM)
Minimum temperature yesterday: 40 °F (at 5:00 PM)
Average temperature yesterday: 41 °F

Past Weeks' High & Low Weather Summary

 TemperatureHumidityPressure
High53 °F (Dec 13, 2:00 PM)100% (Dec 9, 4:00 AM)30.49 "Hg (Dec 9, 4:00 AM)
Low29 °F (Dec 9, 11:00 PM)42% (Dec 13, 2:00 PM)29.85 "Hg (Dec 12, 8:00 PM)
Average40 °F83%30.11 "Hg
* Reported Dec 3 10:00 AM — Dec 18 10:00 AM, Schaffhausen, Weather by CustomWeather, © 2014

Note: Actual official high and low records may vary slightly from our data, if they occured in-between our weather recording intervals... More about our weather records

Advertising

Schaffhausen weather history for previous 24 hours

 ConditionsComfort  
Time TempWeatherWind HumidityBarometerVisibility
10:00 AM
Dec 18
46 °FOvercast.12 mph85%30.13 "Hg16 mi
9:00 AM44 °FQuite cool.5 mph89%30.12 "HgN/A
8:00 AM44 °FQuite cool.5 mph87%30.11 "HgN/A
7:00 AM44 °FOvercast.7 mph89%30.11 "Hg12 mi
6:00 AM44 °FQuite cool.6 mph86%30.10 "HgN/A
5:00 AM43 °FQuite cool.6 mph88%30.10 "HgN/A
3:00 AM42 °FQuite cool.6 mph91%30.11 "HgN/A
2:00 AM43 °FQuite cool.9 mph88%30.09 "HgN/A
1:00 AM42 °FLow clouds.9 mph88%30.09 "Hg11 mi
12:00 AM41 °FQuite cool.8 mph91%30.09 "HgN/A
11:00 PM
Dec 17
41 °FQuite cool.6 mph91%30.07 "HgN/A
10:00 PM41 °FLow clouds.7 mph88%30.06 "Hg16 mi
9:00 PM41 °FQuite cool.6 mph88%30.04 "HgN/A
8:00 PM40 °FChilly.3 mph89%30.03 "HgN/A
7:00 PM40 °FLight rain. Overcast.5 mph89%30.00 "Hg9 mi
6:00 PM40 °FChilly.8 mph88%29.97 "HgN/A
5:00 PM40 °FChilly.10 mph89%29.95 "HgN/A
4:00 PM40 °FRain. Overcast.17 mph88%29.94 "Hg5 mi
3:00 PM40 °FQuite cool.16 mph86%29.92 "HgN/A
2:00 PM41 °FQuite cool.18 mph81%29.91 "HgN/A
1:00 PM43 °FOvercast.12 mph71%29.94 "Hg16 mi
12:00 PM43 °FQuite cool.7 mph76%29.97 "HgN/A
11:00 AM42 °FQuite cool.2 mph83%30.00 "HgN/A
Weather by CustomWeather, © 2014

See weather overviewHow to use our weather pages